Location: Lake Runnemede Observatory
(43.4843°N, 72.3851°W)
Time: 10:58:39
(UTC-04:00)

Amateur Radio Satellites - All Passes

Search period start: 31 October 2014 10:28
Search period end: 01 November 2014 10:28
Location: Lake Runnemede Observatory, 43.4843°N, 72.3851°W

Satellite Date Start Highest point End Downlink Frequencies (MHz)
Time Altitude Azimuth
SO-50 31 Oct 10:34:42 10:38:16 23° 112° (ESE) 10:41:54 436.795 FM
ISS 31 Oct 10:41:20 10:44:38 72° 144° (SE) 10:47:58 145.800 FM
FUNcube-1 31 Oct 10:43:34 10:47:29 36° 97° (E) 10:51:19 145.950 - 145.970 MHz USB
KITSAT 1 31 Oct 10:43:36 10:51:21 54° 114° (ESE) 10:59:09 435.175 FM
Sapphire 31 Oct 11:10:56 11:16:17 54° 55° (NE) 11:21:35 437.095 MHz 1200 baud AX-25 AFSK
HO-68 31 Oct 11:22:30 11:28:46 34° 300° (WNW) 11:35:00 435.675 MHz FM
UKube-1 31 Oct 11:28:23 11:32:15 31° 292° (WNW) 11:36:06 145.840 MHz, 145.915 MHz
PCSat 31 Oct 11:32:36 11:38:04 85° 59° (ENE) 11:43:29 145.825 MHz
ZACube-1 31 Oct 11:36:48 11:40:55 55° 287° (WNW) 11:44:58 437.345 MHz
Oscar 16 31 Oct 11:53:20 11:55:33 13° 57° (ENE) 11:57:45 437.025 USB, Beacon 2401.1428
Oscar 11 31 Oct 12:04:47 12:07:07 14° 298° (WNW) 12:09:26 145.825 FM, Beacon 2401.500 USB
SO-50 31 Oct 12:14:13 12:18:33 44° 311° (NW) 12:23:01 436.795 FM
ISS 31 Oct 12:18:41 12:21:35 27° 344° (NNW) 12:24:30 145.800 FM
FUNcube-1 31 Oct 12:20:32 12:23:37 20° 295° (WNW) 12:26:40 145.950 - 145.970 MHz USB
Uribyol 2 31 Oct 12:26:39 12:28:20 12° 56° (NE) 12:30:01 436.500 FM
AO-Echo 31 Oct 12:28:57 12:31:29 14° 58° (ENE) 12:34:02 ?
ITAMSAT 1 31 Oct 12:33:59 12:36:12 13° 57° (ENE) 12:38:25 435.822 SSB
KITSAT 1 31 Oct 12:39:25 12:46:59 42° 315° (NW) 12:54:35 435.175 FM
Oscar 19 31 Oct 12:42:39 12:47:12 33° 67° (ENE) 12:51:46 437.125 CW, 437.150 USB
JAS-1B 31 Oct 12:43:35 12:48:38 34° 65° (ENE) 12:53:44 435.800 - 435.900 CW/SSB
Sapphire 31 Oct 12:55:06 12:59:19 23° 253° (WSW) 13:03:31 437.095 MHz 1200 baud AX-25 AFSK
UOSAT-12 31 Oct 12:58:12 13:02:45 58° 120° (ESE) 13:07:24 437.025 FM, 437.400 FM
PCSat 31 Oct 13:18:03 13:20:43 14° 257° (WSW) 13:23:23 145.825 MHz
AO-27 31 Oct 13:18:45 13:23:17 31° 66° (ENE) 13:27:51 436.795 MHz FM
Oscar 16 31 Oct 13:28:58 13:34:07 88° 75° (ENE) 13:39:18 437.025 USB, Beacon 2401.1428
Saudisat 1A 31 Oct 13:32:48 13:36:30 25° 43° (NE) 13:40:12 436.775 MHz
Gurwin Techsat 1B 31 Oct 13:34:18 13:38:26 24° 63° (ENE) 13:42:35 435.225 FM
TMSAT-1 31 Oct 13:41:06 13:44:55 21° 62° (ENE) 13:48:45 436.925 FM
ISS 31 Oct 13:56:29 13:59:02 20° 4° (N) 14:01:36 145.800 FM
SO-50 31 Oct 13:59:24 14:00:21 11° 333° (NNW) 14:01:18 436.795 FM
Uribyol 2 31 Oct 14:01:43 14:06:55 77° 74° (ENE) 14:12:10 436.500 FM
AO-Echo 31 Oct 14:04:28 14:09:28 85° 256° (WSW) 14:14:40 ?
AO-7 31 Oct 14:07:33 14:13:12 21° 49° (NE) 14:18:52 29.400 - 29.500 MHz
ITAMSAT 1 31 Oct 14:09:39 14:14:52 85° 74° (ENE) 14:20:08 435.822 SSB
Oscar 19 31 Oct 14:21:57 14:26:31 32° 264° (W) 14:31:06 437.125 CW, 437.150 USB
JAS-1B 31 Oct 14:34:15 14:39:22 33° 264° (W) 14:44:29 435.800 - 435.900 CW/SSB
UOSAT-12 31 Oct 14:39:32 14:43:16 23° 319° (NW) 14:47:02 437.025 FM, 437.400 FM
KITSAT 1 31 Oct 14:40:05 14:44:56 17° 342° (NNW) 14:49:48 435.175 FM
AO-27 31 Oct 14:57:56 15:02:42 36° 263° (W) 15:07:31 436.795 MHz FM
Saudisat 1A 31 Oct 15:12:02 15:16:15 44° 242° (WSW) 15:20:26 436.775 MHz
Oscar 16 31 Oct 15:12:32 15:14:09 11° 272° (W) 15:15:46 437.025 USB, Beacon 2401.1428
Gurwin Techsat 1B 31 Oct 15:12:56 15:18:04 50° 261° (W) 15:23:14 435.225 FM
JAS-2 31 Oct 15:13:56 15:15:19 11° 46° (NE) 15:16:44 435.800 - 435.900 CW/SSB, 435.910 FM
TMSAT-1 31 Oct 15:19:10 15:24:23 58° 259° (W) 15:29:39 436.925 FM
ISS 31 Oct 15:33:10 15:36:22 40° 24° (NNE) 15:39:32 145.800 FM
Uribyol 2 31 Oct 15:44:22 15:46:59 14° 271° (W) 15:49:36 436.500 FM
ITAMSAT 1 31 Oct 15:52:57 15:55:01 12° 272° (W) 15:57:06 435.822 SSB
Uosat F 31 Oct 15:56:07 16:00:57 50° 70° (ENE) 16:05:49 435.120 FM
AO-7 31 Oct 15:56:32 16:04:48 81° 69° (ENE) 16:13:07 29.400 - 29.500 MHz
KITSAT 1 31 Oct 16:39:54 16:44:21 15° 13° (NNE) 16:48:47 435.175 FM
JAS-2 31 Oct 16:52:23 16:58:31 51° 67° (ENE) 17:05:26 435.800 - 435.900 CW/SSB, 435.910 FM
Hamsat 31 Oct 17:05:47 17:09:27 30° 69° (ENE) 17:13:07 145.90 MHz
ISS 31 Oct 17:09:58 17:13:00 33° 221° (SW) 17:16:02 145.800 FM
Uosat F 31 Oct 17:36:16 17:40:00 21° 267° (W) 17:43:45 435.120 FM
AO-7 31 Oct 17:52:22 17:58:26 22° 268° (W) 18:04:34 29.400 - 29.500 MHz
SO-67 31 Oct 17:54:23 17:55:13 11° 64° (ENE) 17:56:02 435.3500 MHz FM
OPAL 31 Oct 18:02:47 18:07:38 52° 103° (ESE) 18:12:27 ?
STRAND 1 31 Oct 18:22:34 18:24:41 12° 88° (E) 18:26:47 ?
KITSAT 1 31 Oct 18:35:20 18:42:38 35° 41° (NE) 18:49:53 435.175 FM
JAS-2 31 Oct 18:38:23 18:43:53 31° 269° (W) 18:50:00 435.800 - 435.900 CW/SSB, 435.910 FM
Hamsat 31 Oct 18:42:01 18:45:24 24° 266° (W) 18:48:48 145.90 MHz
SO-50 31 Oct 19:04:08 19:08:34 34° 46° (NE) 19:13:01 436.795 FM
SO-67 31 Oct 19:24:23 19:27:44 50° 261° (W) 19:31:06 435.3500 MHz FM
AO-40 31 Oct 19:37:25 22:20:56 23° 120° (ESE) 23:37:15 Beacon 2401.320
OPAL 31 Oct 19:42:31 19:46:09 21° 300° (WNW) 19:49:47 ?
RS-15 31 Oct 19:42:55 19:51:12 26° 102° (ESE) 19:59:25 29.354 - 29.394 USB, Beacon 29.352 USB
UOSAT-12 31 Oct 19:47:51 19:50:27 14° 33° (NNE) 19:53:02 437.025 FM, 437.400 FM
STRAND 1 31 Oct 19:59:19 20:04:30 82° 286° (WNW) 20:09:38 ?
HO-68 31 Oct 20:04:00 20:10:43 45° 64° (ENE) 20:17:27 435.675 MHz FM
KITSAT 1 31 Oct 20:30:36 20:38:36 67° 244° (WSW) 20:46:33 435.175 FM
SO-50 31 Oct 20:44:42 20:49:08 36° 244° (WSW) 20:53:35 436.795 FM
UKube-1 31 Oct 20:49:02 20:52:40 26° 67° (ENE) 20:56:20 145.840 MHz, 145.915 MHz
Oscar 10/S400 31 Oct 20:58:29 21:39:41 46° 204° (SSW) 04:43:11 145.825 - 145.975 CW/USB, Beacon 145.810 USB
ZACube-1 31 Oct 20:59:50 21:02:22 15° 63° (ENE) 21:04:52 437.345 MHz
Oscar 11 31 Oct 21:23:06 21:27:18 53° 73° (ENE) 21:31:31 145.825 FM, Beacon 2401.500 USB
UOSAT-12 31 Oct 21:26:45 21:31:29 70° 54° (NE) 21:36:07 437.025 FM, 437.400 FM
FUNcube-1 31 Oct 21:40:44 21:44:52 36° 70° (ENE) 21:48:56 145.950 - 145.970 MHz USB
STRAND 1 31 Oct 21:40:57 21:42:51 12° 304° (WNW) 21:44:46 ?
MaSat-1 31 Oct 21:49:42 21:53:20 38° 112° (ESE) 21:56:37 437.345 MHz
RS-15 31 Oct 21:51:08 22:02:09 86° 304° (NW) 22:13:10 29.354 - 29.394 USB, Beacon 29.352 USB
HO-68 31 Oct 21:51:56 21:58:29 38° 263° (W) 22:05:06 435.675 MHz FM
UKube-1 31 Oct 22:24:54 22:28:45 30° 263° (W) 22:32:38 145.840 MHz, 145.915 MHz
KITSAT 1 31 Oct 22:29:32 22:32:27 12° 262° (W) 22:35:22 435.175 FM
ZACube-1 31 Oct 22:33:48 22:38:17 62° 259° (W) 22:42:42 437.345 MHz
Oscar 11 31 Oct 23:01:26 23:03:49 14° 269° (W) 23:06:12 145.825 FM, Beacon 2401.500 USB
UOSAT-12 31 Oct 23:08:23 23:11:03 15° 251° (WSW) 23:13:41 437.025 FM, 437.400 FM
FUNcube-1 31 Oct 23:17:45 23:21:19 23° 266° (W) 23:24:50 145.950 - 145.970 MHz USB
MaSat-1 31 Oct 23:26:15 23:28:47 17° 306° (NW) 23:31:10 437.345 MHz
RS-15 01 Nov 00:06:41 00:16:14 33° 332° (NNW) 00:25:56 29.354 - 29.394 USB, Beacon 29.352 USB
Oscar 16 01 Nov 01:39:58 01:44:21 28° 95° (E) 01:48:43 437.025 USB, Beacon 2401.1428
Sapphire 01 Nov 01:54:08 01:59:05 38° 112° (ESE) 02:04:04 437.095 MHz 1200 baud AX-25 AFSK
AO-Echo 01 Nov 02:10:52 02:15:32 30° 95° (E) 02:20:08 ?
JAS-1B 01 Nov 02:13:31 02:20:35 59° 102° (ESE) 02:29:00 435.800 - 435.900 CW/SSB
Uribyol 2 01 Nov 02:13:58 02:18:12 25° 94° (E) 02:22:23 436.500 FM
PCSat 01 Nov 02:15:16 02:20:35 62° 116° (ESE) 02:25:57 145.825 MHz
ITAMSAT 1 01 Nov 02:21:55 02:26:21 28° 95° (E) 02:30:45 435.822 SSB
RS-15 01 Nov 02:24:40 02:33:11 25° 7° (N) 02:41:53 29.354 - 29.394 USB, Beacon 29.352 USB
Oscar 19 01 Nov 02:31:32 02:36:41 82° 104° (ESE) 02:41:49 437.125 CW, 437.150 USB
AO-27 01 Nov 03:09:11 03:14:26 76° 103° (ESE) 03:19:38 436.795 MHz FM
Oscar 16 01 Nov 03:19:04 03:23:46 37° 292° (WNW) 03:28:26 437.025 USB, Beacon 2401.1428
Gurwin Techsat 1B 01 Nov 03:27:44 03:33:00 61° 101° (E) 03:38:15 435.225 FM
TMSAT-1 01 Nov 03:33:46 03:38:57 51° 100° (E) 03:44:06 436.925 FM
Sapphire 01 Nov 03:37:35 03:42:31 35° 311° (NW) 03:47:30 437.095 MHz 1200 baud AX-25 AFSK
OPAL 01 Nov 03:42:40 03:45:39 16° 57° (ENE) 03:48:37 ?
AO-Echo 01 Nov 03:49:27 03:54:19 37° 292° (WNW) 03:59:08 ?
Uribyol 2 01 Nov 03:52:56 03:57:50 43° 291° (WNW) 04:02:42 436.500 FM
AO-7 01 Nov 03:57:43 04:04:13 25° 93° (E) 04:10:40 29.400 - 29.500 MHz
PCSat 01 Nov 04:00:04 04:04:26 24° 316° (NW) 04:08:50 145.825 MHz
ITAMSAT 1 01 Nov 04:01:06 04:05:56 39° 292° (WNW) 04:10:44 435.822 SSB
Uosat F 01 Nov 04:04:20 04:06:49 14° 89° (E) 04:09:18 435.120 FM
JAS-1B 01 Nov 04:04:54 04:10:55 32° 296° (WNW) 04:17:52 435.800 - 435.900 CW/SSB
Oscar 19 01 Nov 04:12:41 04:15:20 14° 301° (WNW) 04:17:59 437.125 CW, 437.150 USB
RS-15 01 Nov 04:38:46 04:49:20 46° 40° (NE) 05:00:15 29.354 - 29.394 USB, Beacon 29.352 USB
AO-27 01 Nov 04:50:12 04:53:19 16° 301° (WNW) 04:56:25 436.795 MHz FM
Gurwin Techsat 1B 01 Nov 05:08:44 05:12:30 20° 299° (WNW) 05:16:15 435.225 FM
TMSAT-1 01 Nov 05:14:27 05:18:31 23° 297° (WNW) 05:22:35 436.925 FM
OPAL 01 Nov 05:18:50 05:23:57 76° 255° (WSW) 05:29:01 ?
Saudisat 1A 01 Nov 05:19:22 05:23:20 34° 116° (ESE) 05:27:19 436.775 MHz
STRAND 1 01 Nov 05:38:52 05:42:46 22° 63° (ENE) 05:46:41 ?
Uosat F 01 Nov 05:41:06 05:46:09 74° 287° (WNW) 05:51:10 435.120 FM
JAS-2 01 Nov 05:44:52 05:52:24 46° 96° (E) 05:59:39 435.800 - 435.900 CW/SSB, 435.910 FM
AO-7 01 Nov 05:49:25 05:57:44 76° 292° (WNW) 06:06:03 29.400 - 29.500 MHz
Hamsat 01 Nov 06:25:19 06:29:28 53° 100° (E) 06:33:37 145.90 MHz
RS-15 01 Nov 06:51:17 07:02:15 64° 244° (WSW) 07:13:42 29.354 - 29.394 USB, Beacon 29.352 USB
Saudisat 1A 01 Nov 06:59:02 07:02:55 30° 315° (NW) 07:06:50 436.775 MHz
STRAND 1 01 Nov 07:16:37 07:21:36 51° 260° (W) 07:26:38 ?
Uosat F 01 Nov 07:23:03 07:24:02 11° 305° (NW) 07:25:02 435.120 FM
JAS-2 01 Nov 07:30:01 07:37:16 43° 295° (WNW) 07:44:21 435.800 - 435.900 CW/SSB, 435.910 FM
MaSat-1 01 Nov 07:32:49 07:35:18 78° 245° (WSW) 07:37:39 437.345 MHz
AO-7 01 Nov 07:43:47 07:49:13 20° 313° (NW) 07:54:40 29.400 - 29.500 MHz
Hamsat 01 Nov 08:02:32 08:05:00 15° 296° (WNW) 08:07:28 145.90 MHz
SO-67 01 Nov 08:19:09 08:22:30 49° 286° (WNW) 08:25:50 435.3500 MHz FM
Sapphire 01 Nov 08:59:56 09:00:45 10° 29° (NNE) 09:01:34 437.095 MHz 1200 baud AX-25 AFSK
RS-15 01 Nov 09:07:39 09:12:19 13° 265° (W) 09:17:03 29.354 - 29.394 USB, Beacon 29.352 USB
KITSAT 1 01 Nov 09:09:04 09:13:16 15° 99° (E) 09:17:28 435.175 FM
HO-68 01 Nov 09:17:37 09:24:21 41° 98° (E) 09:31:01 435.675 MHz FM
PCSat 01 Nov 09:20:03 09:22:55 14° 35° (NE) 09:25:47 145.825 MHz
ISS 01 Nov 09:52:23 09:55:32 41° 140° (SE) 09:58:41 145.800 FM
UKube-1 01 Nov 10:11:21 10:15:28 39° 99° (E) 10:19:33 145.840 MHz, 145.915 MHz
